User: anonymous
Location: Durham
(35.9940°N, 78.8990°W)
Time: 10:53:29
(UTC-04:00)
Language:

Iridium 63 - Orbit

View from above orbital plane
View from above orbital plane
View from above satellite
View from above satellite

Ground track
Ground track

The orbit data is extracted from the following two-line orbital elements,

1 25286U 98021B   14239.11683990  .00000138  00000-0  42206-4 0  9416
2 25286 086.3974 292.6600 0002259 112.9993 276.3044 14.34219912858091
Epoch (UTC): 27 August 2014 02:48:14
Eccentricity: 0.0002259
inclination: 86.3974°
perigee height: 776 km
apogee height: 779 km
right ascension of ascending node: 292.6600°
argument of perigee: 112.9993°
revolutions per day: 14.34219912
mean anomaly at epoch: 276.3044°
orbit number at epoch: 85809

The dashed part of the orbit path shows where the satellite is in the earth's shadow,  

DLR